Simultaneous Nadir Overpasses (SNOs) Predictions

Prediction of SNOs between METOP-B and NOAA-19 Satellite Orbit:

Table of predicted SNOs for the next 14.0 days since TLE Epoch: 10/10/2016
Index Date (METOP-B) Time (METOP-B) Lat,Lon (METOP-B) SZA (METOP-B ) Date (NOAA-19) Time (NOAA-19) Lat,Lon (NOAA-19) SZA (NOAA-19 ) Distance(km) Time Diff (sec)
1 10/10/2016 21:11:04 76.75,-134.55 83.82 10/10/2016 21:09:56 76.79,-137.17 83.80 66.62 68
2 10/10/2016 22:01:53 -76.40, 31.47 96.55 10/10/2016 22:00:47 -76.41, 31.60 96.54 3.54 66
3 10/10/2016 22:52:33 76.42,-161.15 83.49 10/10/2016 22:51:49 76.40,-161.12 83.47 2.00 44
4 10/10/2016 23:43:15 -76.39, 6.07 96.54 10/10/2016 23:42:49 -76.42, 6.07 96.51 3.45 26
5 10/11/2016 00:33:55 76.40, 173.45 83.49 10/11/2016 00:33:51 76.41, 173.36 83.50 2.38 4
6 10/11/2016 01:24:37 -76.37, -19.34 96.53 10/11/2016 01:24:50 -76.38, -19.28 96.52 1.84 13
7 10/11/2016 02:15:17 76.38, 148.05 83.50 10/11/2016 02:15:52 76.37, 148.01 83.49 2.23 35
8 10/11/2016 03:05:59 -76.35, -44.74 96.53 10/11/2016 03:06:51 -76.34, -44.63 96.53 3.14 52
9 10/11/2016 03:56:39 76.37, 122.64 83.51 10/11/2016 03:57:54 76.37, 122.49 83.52 4.07 75
10 10/21/2016 13:57:47 76.62, -26.72 87.61 10/21/2016 13:56:35 76.63, -27.94 87.59 31.57 72
11 10/21/2016 14:48:32 -76.45, 140.00 92.56 10/21/2016 14:47:28 -76.45, 140.05 92.58 1.44 64
12 10/21/2016 15:39:12 76.46, -52.63 87.47 10/21/2016 15:38:33 76.46, -52.77 87.46 3.82 39
13 10/21/2016 16:29:54 -76.44, 114.60 92.56 10/21/2016 16:29:30 -76.45, 114.52 92.55 2.67 24
14 10/21/2016 17:20:35 76.40, -78.20 87.42 10/21/2016 17:20:34 76.42, -78.13 87.45 3.02 1
15 10/21/2016 18:11:16 -76.42, 89.19 92.55 10/21/2016 18:11:31 -76.41, 89.17 92.55 0.78 15
16 10/21/2016 19:01:57 76.38,-103.60 87.43 10/21/2016 19:02:35 76.38,-103.48 87.44 3.17 38
17 10/21/2016 19:52:38 -76.40, 63.79 92.55 10/21/2016 19:53:32 -76.38, 63.81 92.56 2.82 54
18 10/21/2016 20:43:22 76.23,-129.49 87.29 10/21/2016 20:44:34 76.26,-128.50 87.35 26.44 72




NCC Satellite Simultaneous Nadir Overpasses
